Regional Weather Roundup
Issued by NWS

Home | Current Version | Previous Version | Text Only | Print | Product List | Glossary On
Versions: 1 2 3 4 5 6 7 8 9 10 11 12 13 14 15 16 17 18 19 20 21 22 23 24 25 26 27 28 29 30 31 32 33 34 35 36 37 38 39 40 41 42 43 44 45 46 47 48 49 50
000
ASUS44 KBMX 221910
RWRAL

ALABAMA REGIONAL WEATHER ROUNDUP
NATIONAL WEATHER SERVICE BIRMINGHAM AL
200 PM CDT FRI MAY 22 2015

NOTE: "FAIR" INDICATES FEW OR NO CLOUDS BELOW 12,000 FEET
WITH NO SIGNIFICANT WEATHER AND/OR OBSTRUCTIONS TO VISIBILITY.

THE REMARK "TC" DENOTES TEMPERATURE IN DEGREES CELSIUS.

ALZ001>011-014-016>018-020-222000-
NORTH ALABAMA

CITY           SKY/WX    TMP DP  RH WIND       PRES   REMARKS
MUSCLE SHOALS  SUNNY     71  46  40 E6        30.27S
HUNTSVILLE     SUNNY     75  47  36 N8        30.24F
DECATUR        NOT AVBL
HALEYVILLE     FAIR      71  49  45 CALM      30.28S
GADSDEN        SUNNY     73  46  38 E6        30.21S
$$

ALZ012-013-022-023-030>036-040>044-222000-
WEST CENTRAL ALABAMA

CITY           SKY/WX    TMP DP  RH WIND       PRES   REMARKS
TUSCALOOSA     SUNNY     75  49  39 N10       30.22F
$$

ALZ015-024>027-033>036-040>044-222000-
CENTRAL ALABAMA

CITY           SKY/WX    TMP DP  RH WIND       PRES   REMARKS
BIRMINGHAM     MOSUNNY   74  48  39 NW9       30.23F
MONTGOMERY     SUNNY     76  49  38 VRB6      30.19F
SHELBY CO ARPT SUNNY     74  48  39 SE6       30.21F
MAXWELL AFB    SUNNY     74  52  46 N10       30.18F
GREENVILLE     FAIR      76  50  40 CALM      30.18F
$$

ALZ019-021-028-029-037-038-045>048-222000-
EAST CENTRAL ALABAMA

CITY           SKY/WX    TMP DP  RH WIND       PRES   REMARKS
ANNISTON       SUNNY     75  51  43 VRB3      30.20F
ALEXANDER CITY SUNNY     74  47  38 CALM      30.20F
AUBURN         SUNNY     73  48  40 NE9       30.20F
$$

ALZ051>064-222000-
SOUTHWEST ALABAMA

CITY           SKY/WX    TMP DP  RH WIND       PRES   REMARKS
MOBILE         MOSUNNY   80  58  46 N8        30.17F
BROOKLEY FIELD MOSUNNY   78  58  49 NE7       30.18F
EVERGREEN      SUNNY     77  53  43 VRB5      30.18F
$$

ALZ049-050-065>069-222000-
SOUTHEAST ALABAMA

CITY           SKY/WX    TMP DP  RH WIND       PRES   REMARKS
DOTHAN         SUNNY     79  51  37 NE5       30.20F
OZARK          SUNNY     78  52  40 NW9       30.16F
TROY           SUNNY     77  52  41 VRB5      30.18F
EUFAULA        FAIR      78  53  41 CALM      30.16F
$$


USA.gov is the U.S. government's official web portal to all federal, state and local government web resources and services.